Regional Weather Roundup
Issued by NWS

Home | Current Version | Previous Version | Graphics & Text | Print | Product List | Glossary On
Versions: 1 2 3 4 5 6 7 8 9 10 11 12 13 14 15 16 17 18 19 20 21 22 23 24 25 26 27 28 29 30 31 32 33 34 35 36 37 38 39 40 41 42 43 44 45 46 47 48 49 50
061
ASUS45 KCYS 231410
RWRWY

WYOMING REGIONAL WEATHER ROUNDUP
NATIONAL WEATHER SERVICE CHEYENNE WY
800 AM MDT FRI JUN 23 2017

NOTE:  "FAIR" INDICATES FEW OR NO CLOUDS BELOW 12,000 FEET
WITH NO SIGNIFICANT WEATHER AND/OR OBSTRUCTIONS TO VISIBILITY.

WYZ001-231500-
YELLOWSTONE NATIONAL PARK

CITY           SKY/WX    TMP DP  RH WIND       PRES   REMARKS
LK YELLOWSTONE   N/A     40  32  73 S3        30.37S
W YELLOWSTONE  NOT AVBL

$$
WYZ002>013-054>058-071-098>099-231500-
NORTHERN WYOMING

CITY           SKY/WX    TMP DP  RH WIND       PRES   REMARKS
JACKSON        SUNNY     46  34  61 CALM      30.31R
CODY           FAIR      53  35  50 VRB6      30.33R
GREYBULL       FAIR      55  32  41 CALM      30.28S
WORLAND        FAIR      54  35  48 CALM      30.29S
SHERIDAN       FAIR      53  38  56 NW8       30.29S
BUFFALO        FAIR      50  37  61 VRB3      30.31R
GILLETTE       FAIR      52  37  56 NW14      30.28R
NEWCASTLE      FAIR      50  34  53 NW20G25   30.26R

$$
WYZ014>020-022>026-101>103-231500-
CENTRAL WYOMING

CITY           SKY/WX    TMP DP  RH WIND       PRES   REMARKS
BIG PINEY      FAIR      48  31  51 S14       30.34R
PINEDALE       FAIR      46  30  53 W6        30.35R
DUBOIS         FAIR      43  30  61 NE3       30.35S
LANDER         FAIR      50  35  56 CALM      30.31S
RIVERTON       FAIR      50  32  50 CALM      30.32S
CASPER         FAIR      52  35  52 VRB5      30.30S
DOUGLAS        FAIR      51  39  63 W6        30.30S

$$
WYZ021-027>030-104>119-231500-
SOUTHERN WYOMING

CITY           SKY/WX    TMP DP  RH WIND       PRES   REMARKS
EVANSTON       FAIR      52  34  50 E13       30.30R
KEMMERER         N/A     50  30  46 NE7       30.33S
FORT BRIDGER   FAIR      52  31  45 E8        30.34R
ROCK SPRINGS   FAIR      50  28  42 E10       30.32R
DIXON          FAIR      54  36  49 SE6       30.29R
RAWLINS        FAIR      51  32  48 NE14      30.32R
SARATOGA       FAIR      52  34  50 S6        30.30S
LARAMIE        CLOUDY    47  36  65 SE6       30.31F
CHEYENNE       PTSUNNY   48  36  63 NE9       30.31S
TORRINGTON     CLOUDY    55  40  56 NW7       30.26R
PINE BLUFFS    CLOUDY    48  39  71 N9        30.30S

$$




USA.gov is the U.S. government's official web portal to all federal, state and local government web resources and services.